Regional Weather Roundup
Issued by NWS State College, PA

Home | Current Version | Previous Version | Text Only | Print | Product List | Glossary Off
Versions: 1 2 3 4 5 6 7 8 9 10 11 12 13 14 15 16 17 18 19 20 21 22 23 24 25 26 27 28 29 30 31 32 33 34 35 36 37 38 39 40 41 42 43 44 45 46 47 48 49 50

000
ASUS41 KCTP 170710
RWRCTP

REGIONAL WEATHER ROUNDUP
NATIONAL WEATHER SERVICE STATE COLLEGE PA
200 AM EST FRI NOV 17 2017

Note: "fair" indicates few or no clouds below 12,000 feet with no
significant weather and/or obstructions to visibility.

* = STATION THAT DOES NOT REPORT PRECIPITATION /E.G. RAIN...SNOW...ETC/
    THUNDER OR FOG.

PAZ002>004-007>009-013>016-020>023-029>032-170800-
WESTERN PENNSYLVANIA

CITY           SKY/WX    TMP DP  RH WIND       PRES   REMARKS
ERIE           CLOUDY    37  28  70 NW12G24   30.21R
MEADVILLE      CLOUDY    33  32  96 W5        30.19R
FRANKLIN*      LGT RAIN  33  30  88 NW6       30.18R
NEW CASTLE     CLOUDY    37  29  72 N7        30.21S
BEAVER COUNTY  NOT AVBL
BUTLER*        CLOUDY    37  29  72 NW3       30.20R
PITTSBURGH INT CLOUDY    37  31  78 W6        30.19S
PITTSBURGH     CLOUDY    37  28  70 NW5       30.18S
INDIANA*       CLOUDY    36  34  93 NW10G18   30.19R FOG
LATROBE        CLOUDY    37  30  75 W8        30.19S
WASHINGTON CO* CLOUDY    37  30  75 W6        30.23S
$$

PAZ004>006-010>012-017>019-024>028-033>037-041-042-045-046-049>053-170800-
CENTRAL PENNSYLVANIA

CITY           SKY/WX    TMP DP  RH WIND       PRES   REMARKS
BRADFORD       CLOUDY    31  29  92 NW9G21    30.09R
DUBOIS         LGT SNOW  32  29  88 NW13      30.12R FOG
CLEARFIELD     CLOUDY    35  28  75 NW12      30.12R
JOHNSTOWN      CLOUDY    33  28  81 W26G32    30.09S
ALTOONA        CLOUDY    39  27  62 NW16G30   30.11S
STATE COLLEGE  PTCLDY    36  28  74 NW10      30.10R
WILLIAMSPORT   CLOUDY    43  29  57 NW14      30.05R
SELINSGROVE    CLOUDY    42  30  62 NW7       30.08R
FT INDIANTOWN  PTCLDY    41  27  57 W9G18     30.03R
CAPITAL CITY   PTCLDY    44  28  53 NW15G23   30.06R
HARRISBURG     PTCLDY    43  30  60 NW14      30.06R
YORK           PTCLDY    41  29  62 W9        30.07R
$$

PAZ038>040-043-044-047-048-054-055-060>062-067>071-170800-
EASTERN PENNSYLVANIA

CITY           SKY/WX    TMP DP  RH WIND       PRES   REMARKS
SCRANTON       CLOUDY    39  28  64 NW16G25   29.99R
MOUNT POCONO   CLOUDY    34  28  79 NW20G30   29.91R
ALLENTOWN      CLOUDY    43  29  57 NW14G30   30.00R
QUAKERTOWN*    CLOUDY    41  30  65 N9        30.00R
READING        CLOUDY    44  32  62 NW15G24   30.02R
LANCASTER      CLOUDY    43  31  62 NW17G28   30.04R
COATESVILLE    PTSUNNY   41  30  65 NW18G25   30.02R
POTTSTOWN      MOCLDY    42  29  59 NW14G23   30.02R
BLUE BELL      MOCLDY    41  30  65 W7        30.01R
DOYLESTOWN     CLOUDY    41  32  70 N9G18     29.98R
WILLOW GROVE   NOT AVBL
NORTH PHILA    MOCLDY    45  31  58 W9        30.01R
PHILADELPHIA   MOCLDY    44  30  57 W15       30.02R
$$




USA.gov is the U.S. government's official web portal to all federal, state and local government web resources and services.